Weather History for Knox Cnty, Mount Vernon, OH, OH

Change the Weather History Date:

Monday, June 9, 2014

  Actual Average (KMFD) Record (KMFD)
Temperature  
Mean Temperature 64 °F 66 °F  
Max Temperature 75 °F 76 °F 92 °F (1999)
Min Temperature 53 °F 56 °F 40 °F (1932)
Degree Days  
Heating Degree Days 1 2  
Month to date heating degree days 28  
Since 1 June heating degree days 28  
Since 1 July heating degree days 6245  
Cooling Degree Days 0 3  
Month to date cooling degree days 27  
Year to date cooling degree days 73  
Since 1 June cooling degree days 27  
Growing Degree Days 14 (Base 50)    
Moisture  
Dew Point 56 °F    
Average Humidity 77    
Maximum Humidity 100    
Minimum Humidity 53    
Precipitation  
Precipitation 0.00 in 0.16 in 1.39 in (2004)
Month to date precipitation 1.48  
Year to date precipitation 18.81  
Snow  
Snow 0.00 in 0.00 in - ()
Month to date snowfall 0.0  
Since 1 June snowfall 0.0  
Since 1 July snowfall 48.3  
Snow Depth -    
Sea Level Pressure  
Sea Level Pressure 29.97 in    
Wind  
Wind Speed 6 mph (North)    
Max Wind Speed 12 mph    
Max Gust Speed 17 mph    
Visibility 9 miles    
Events      
T = Trace of Precipitation, MM = Missing Value Source: NWS Daily Summary

Daily Weather History Graph

Daily Weather History Graph

Search for Another Location

Airport:

Trip Planner

Search our weather history database for the weather conditions in past years. The results will help you decide how hot, cold, wet, or windy it might be!

Date:

Astronomy

Jun. 09, 2014 Rise Set
Actual Time 5:59 AM EDT 8:58 PM EDT
Civil Twilight 5:27 AM EDT 9:31 PM EDT
Nautical Twilight 4:45 AM EDT 10:13 PM EDT
Astronomical Twilight 3:57 AM EDT 11:02 PM EDT
Moon 5:18 PM EDT (6/9) 3:27 AM EDT (6/9)
Length of Visible Light 16h 04m
Length of Day
14h 59m
Waxing Gibbous, 85% of the Moon is Illuminated
Jun 9
Waxing Gibbous
Jun 13
Full
Jun 19
Last Quarter
Jun 27
New
Jul 5
First Quarter

Hourly Weather History & Observations

Time (EDT) Temp. Dew Point Humidity Pressure Visibility Wind Dir Wind Speed Gust Speed Precip Events Conditions
12:15 AM 59.0 °F 55.4 °F 88% 29.97 in 10.0 mi NNW 4.6 mph - N/A   Clear
12:36 AM 55.4 °F 53.6 °F 94% 29.97 in 10.0 mi NW 4.6 mph - N/A   Clear
12:55 AM 57.2 °F 53.6 °F 88% 29.97 in 10.0 mi NNW 5.8 mph - N/A   Clear
1:15 AM 55.4 °F 53.6 °F 94% 29.98 in 10.0 mi WNW 5.8 mph - N/A   Clear
1:35 AM 53.6 °F 51.8 °F 94% 29.98 in 10.0 mi WNW 5.8 mph - N/A   Clear
1:55 AM 55.4 °F 53.6 °F 94% 29.98 in 10.0 mi NW 4.6 mph - N/A   Clear
2:15 AM 57.2 °F 53.6 °F 88% 29.98 in 10.0 mi NNW 6.9 mph - N/A   Clear
2:36 AM 57.2 °F 53.6 °F 88% 29.97 in 10.0 mi NNW 4.6 mph - N/A   Clear
2:55 AM 55.4 °F 53.6 °F 94% 29.98 in 10.0 mi NW 5.8 mph - N/A   Clear
3:15 AM 55.4 °F 53.6 °F 94% 29.98 in 10.0 mi NNW 4.6 mph - N/A   Clear
3:36 AM 55.4 °F 53.6 °F 94% 29.98 in 10.0 mi NNW 3.5 mph - N/A   Clear
3:55 AM 55.4 °F 53.6 °F 94% 29.97 in 10.0 mi North 5.8 mph - N/A   Clear
4:15 AM 55.4 °F 53.6 °F 94% 29.96 in 10.0 mi NNW 5.8 mph - N/A   Clear
4:36 AM 55.4 °F 53.6 °F 94% 29.96 in 10.0 mi NNW 6.9 mph - N/A   Clear
4:55 AM 55.4 °F 53.6 °F 94% 29.96 in 7.0 mi North 5.8 mph - N/A   Clear
5:15 AM 55.4 °F 53.6 °F 94% 29.96 in 7.0 mi North 5.8 mph - N/A   Clear
5:36 AM 55.4 °F 53.6 °F 94% 29.96 in 5.0 mi North 5.8 mph - N/A   Clear
5:55 AM 55.4 °F 53.6 °F 94% 29.97 in 4.0 mi NNW 5.8 mph - N/A   Clear
6:16 AM 55.4 °F 55.4 °F 100% 29.97 in 3.0 mi North 6.9 mph - N/A   Mist
6:35 AM 55.4 °F 55.4 °F 100% 29.97 in 3.0 mi North 6.9 mph - N/A   Mist
6:55 AM 55.4 °F 55.4 °F 100% 29.97 in 5.0 mi NNW 6.9 mph - N/A   Scattered Clouds
7:16 AM 57.2 °F 55.4 °F 94% 29.97 in 7.0 mi NNW 6.9 mph - N/A   Mostly Cloudy
7:35 AM 59.0 °F 55.4 °F 88% 29.97 in 10.0 mi NNW 8.1 mph - N/A   Scattered Clouds
7:55 AM 60.8 °F 55.4 °F 82% 29.97 in 10.0 mi North 6.9 mph - N/A   Clear
8:16 AM 60.8 °F 55.4 °F 82% 29.99 in 10.0 mi North 8.1 mph - N/A   Clear
8:35 AM 60.8 °F 55.4 °F 82% 30.00 in 10.0 mi North 8.1 mph - N/A   Clear
8:55 AM 60.8 °F 55.4 °F 82% 30.00 in 10.0 mi North 8.1 mph - N/A   Clear
9:16 AM 64.4 °F 55.4 °F 73% 30.00 in 10.0 mi North 8.1 mph - N/A   Clear
9:35 AM 64.4 °F 57.2 °F 77% 30.00 in 10.0 mi North 8.1 mph - N/A   Scattered Clouds
9:55 AM 64.4 °F 57.2 °F 77% 30.00 in 10.0 mi North 8.1 mph - N/A   Overcast
10:16 AM 68.0 °F 59.0 °F 73% 29.99 in 10.0 mi North 8.1 mph - N/A   Mostly Cloudy
10:36 AM 69.8 °F 57.2 °F 64% 29.98 in 10.0 mi NNE 6.9 mph 16.1 mph N/A   Clear
11:16 AM 69.8 °F 57.2 °F 64% 29.97 in 10.0 mi NNE 11.5 mph 17.3 mph N/A   Clear
11:35 AM 69.8 °F 57.2 °F 64% 29.98 in 10.0 mi North 8.1 mph - N/A   Clear
11:56 AM 68.0 °F 55.4 °F 64% 29.99 in 10.0 mi NNE 5.8 mph - N/A   Clear
12:35 PM 68.0 °F 55.4 °F 64% 30.00 in 10.0 mi NNE 6.9 mph - N/A   Clear
12:56 PM 69.8 °F 57.2 °F 64% 30.00 in 10.0 mi North 6.9 mph - N/A   Clear
1:15 PM 69.8 °F 57.2 °F 64% 29.99 in 10.0 mi NNE 8.1 mph - N/A   Clear
1:36 PM 69.8 °F 55.4 °F 60% 29.99 in 10.0 mi NNW 5.8 mph - N/A   Clear
1:56 PM 69.8 °F 55.4 °F 60% 29.99 in 10.0 mi North 6.9 mph - N/A   Clear
2:15 PM 71.6 °F 57.2 °F 60% 29.98 in 10.0 mi North 5.8 mph - N/A   Clear
2:36 PM 71.6 °F 57.2 °F 60% 29.97 in 10.0 mi NE 8.1 mph - N/A   Clear
4:16 PM 73.4 °F 57.2 °F 57% 29.94 in 10.0 mi NE 5.8 mph - N/A   Clear
4:36 PM 71.6 °F 57.2 °F 60% 29.95 in 10.0 mi NE 4.6 mph - N/A   Clear
4:55 PM 73.4 °F 57.2 °F 57% 29.94 in 10.0 mi NE 5.8 mph - N/A   Clear
5:16 PM 75.2 °F 57.2 °F 53% 29.94 in 10.0 mi NE 4.6 mph - N/A   Clear
5:36 PM 75.2 °F 57.2 °F 53% 29.94 in 10.0 mi North 4.6 mph - N/A   Scattered Clouds
5:55 PM 73.4 °F 57.2 °F 57% 29.94 in 10.0 mi East 4.6 mph - N/A   Scattered Clouds
6:16 PM 71.6 °F 59.0 °F 64% 29.94 in 10.0 mi NNE 5.8 mph - N/A   Mostly Cloudy
6:36 PM 71.6 °F 59.0 °F 64% 29.93 in 10.0 mi ENE 3.5 mph - N/A   Overcast
6:55 PM 73.4 °F 59.0 °F 61% 29.93 in 10.0 mi North 3.5 mph - N/A   Mostly Cloudy
7:16 PM 71.6 °F 57.2 °F 60% 29.93 in 10.0 mi NE 4.6 mph - N/A   Mostly Cloudy
7:35 PM 69.8 °F 59.0 °F 68% 29.93 in 10.0 mi Calm Calm - N/A   Scattered Clouds
7:56 PM 69.8 °F 59.0 °F 68% 29.94 in 10.0 mi Calm Calm - N/A   Mostly Cloudy
8:15 PM 69.8 °F 59.0 °F 68% 29.94 in 10.0 mi NNW 3.5 mph - N/A   Overcast
8:36 PM 69.8 °F 57.2 °F 64% 29.93 in 10.0 mi North 6.9 mph - N/A   Mostly Cloudy
8:56 PM 68.0 °F 59.0 °F 73% 29.94 in 10.0 mi NE 3.5 mph - N/A   Mostly Cloudy
9:15 PM 66.2 °F 59.0 °F 78% 29.94 in 10.0 mi North 4.6 mph - N/A   Scattered Clouds
9:36 PM 66.2 °F 57.2 °F 73% 29.95 in 10.0 mi North 4.6 mph - N/A   Scattered Clouds
9:56 PM 66.2 °F 57.2 °F 73% 29.95 in 10.0 mi North 3.5 mph - N/A   Scattered Clouds
10:15 PM 66.2 °F 57.2 °F 73% 29.95 in 10.0 mi North 3.5 mph - N/A   Clear
10:36 PM 64.4 °F 57.2 °F 77% 29.95 in 10.0 mi North 4.6 mph - N/A   Clear
10:56 PM 64.4 °F 57.2 °F 77% 29.96 in 10.0 mi North 3.5 mph - N/A   Clear
11:15 PM 64.4 °F 57.2 °F 77% 29.96 in 10.0 mi Calm Calm - N/A   Clear
11:36 PM 62.6 °F 57.2 °F 82% 29.96 in 10.0 mi Calm Calm - N/A   Clear
11:55 PM 60.8 °F 57.2 °F 88% 29.95 in 10.0 mi Calm Calm - N/A   Clear